Regional Weather Roundup
Issued by NWS

Home | Current Version | Previous Version | Text Only | Print | Product List | Glossary Off
Versions: 1 2 3 4 5 6 7 8 9 10 11 12 13 14 15 16 17 18 19 20 21 22 23 24 25 26 27 28 29 30 31 32 33 34 35 36 37 38 39 40 41 42 43 44 45 46 47 48 49 50

000
ASUS43 KLOT 211006
RWRIL

ILLINOIS REGIONAL WEATHER ROUNDUP
NATIONAL WEATHER SERVICE CHICAGO/ROMEOVILLE IL
500 AM CDT SUN SEP 21 2014

NOTE: "FAIR" INDICATES FEW OR NO CLOUDS BELOW 12,000 FEET WITH NO
SIGNIFICANT WEATHER AND/OR OBSTRUCTIONS TO VISIBILITY.

* THESE STATIONS ARE NOT UNDER NWS QUALITY CONTROL. THEY ALSO MAY NOT
  REPORT WEATHER SUCH AS PRECIPITATION OR FOG.

ILZ001-002-007-009-015-016-024-211100-
NORTHWEST ILLINOIS

CITY           SKY/WX    TMP DP  RH WIND       PRES   REMARKS
MOLINE         CLEAR     56  51  84 W8        29.90S
STERLING*      CLEAR     55  50  82 W9        29.86S
SAVANNA*       CLEAR     57  51  82 W7        29.86S
$$

ILZ003-004-008-010-011-017-018-211100-
NORTH CENTRAL ILLINOIS

CITY           SKY/WX    TMP DP  RH WIND       PRES   REMARKS
ROCKFORD       CLEAR     56  51  84 W10       29.84R
ROCHELLE*      CLEAR     55  52  91 W8        29.84S
DE KALB*       CLEAR     55  51  88 W12G18    29.83S
PERU*          CLEAR     57  53  88 W12       29.87R
$$

ILZ005-006-012>014-019>023-211100-
NORTHEAST ILLINOIS

CITY           SKY/WX    TMP DP  RH WIND       PRES   REMARKS
CHICAGO-OHARE  CLEAR     59  53  80 W15       29.77R
CHICAGO-MIDWAY PTCLDY    62  55  77 W12       29.78R
AURORA         CLEAR     56  52  86 W10       29.82R
LANSING*       CLEAR     60  55  83 W10G16    29.80R
JOLIET*        CLEAR     58  53  83 W7        29.83R
WAUKEGAN       CLEAR     57  50  77 VRB6      29.74R
DUPAGE AIRPORT CLEAR     58  53  84 W14       29.80R
KANKAKEE*      CLEAR     60  56  86 W13G21    29.84R
WHEELING       CLEAR     60  51  72 W10G20    29.78R
MORRIS*        CLEAR     58  56  95 W8        29.83S
ROMEOVILLE*    CLEAR     58  54  88 W10G16    29.81S
NORTHERLY ISL    N/A     62  52  69 W10         N/A
$$

LMZ740>746-211100-
SOUTHERN LAKE MICHIGAN

STATION/POSITION SKY/WX   TEMP    WIND        PRES    VSBY  WAVE
                          AIR SEA DIR/SP/G                  HT/PER
                          (F)     (DEG/KT/KT) (MB)    (MI)  (FT/S)
SOUTHERN BUOY              62 63  270/ 23/ 27 1005.4R         4/ 4
WAUKEGAN HARBOR            60     280/ 16/ 23   N/A
HARRISON CRIB              62     280/ 21/ 29   N/A
BURNHAM HARBOR             62     290/  7/ 17   N/A
CALUMET HARBOR             62     260/  5/ 12 1007.1R
MICHIGAN CITY              64     260/ 23/ 27   N/A
MICHIGAN CITY 6N           64 65  280/ 19/ 25   N/A           6/ 4
ST. JOSEPH                 64 65  280/ 17/ 21   N/A           5/ 5
$$

ILZ025>027-034>036-040-047-049-050-058-095>099-211100-
WEST-CENTRAL ILLINOIS

CITY           SKY/WX    TMP DP  RH WIND       PRES   REMARKS
QUINCY         CLEAR     58  53  84 NW6       29.98R
GALESBURG*     CLEAR     53  51  92 W7        29.93R
MACOMB*        CLEAR     55  53  94 W8        29.97S
JACKSONVILLE*  CLEAR     63  59  87 NW6       29.97R
PITTSFIELD*    CLEAR     62  54  75 NW6       29.99R
$$

ILZ028>032-037-038-041>044-048-051>054-059>061-211100-
CENTRAL ILLINOIS

CITY           SKY/WX    TMP DP  RH WIND       PRES   REMARKS
PONTIAC        CLEAR     61  55  82 W7        29.87R
DECATUR        CLEAR     65  56  72 NW20G26   29.91R
PEORIA         CLEAR     60  52  74 W6        29.92R
LACON*         CLEAR     57  51  79 W7        29.88R
LINCOLN*       CLEAR     61  55  80 W5        29.90R
SPRINGFIELD    CLEAR     63  57  81 NW9       29.94R
TAYLORVILLE    MOCLDY    66  61  82 N14G21    29.92R
$$

ILZ033-039-045-046-055>057-062-063-211100-
EAST-CENTRAL ILLINOIS

CITY           SKY/WX    TMP DP  RH WIND       PRES   REMARKS
CHAMPAIGN      MOCLDY    65  60  84 NW20G26   29.88R
DANVILLE*      HVY RAIN  67  64  90 NW14G20   29.82R
RANTOUL*       CLEAR     64  58  80 NW13G22   29.88R
MATTOON        PTCLDY    69  67  93 W10       29.87R
PARIS*         CLEAR     68  67  98 W8        29.86R FOG
$$

ILZ079-100>102-211100-
SOUTHWEST ILLINOIS

CITY           SKY/WX    TMP DP  RH WIND       PRES   REMARKS
ALTON          PTCLDY    70  68  93 NW9       29.93R
BELLEVILLE     PTCLDY    72  71  96 SW5       29.91R
CAHOKIA*       PTCLDY    73  69  87 W8        29.92R
SPARTA*        CLOUDY    71  69  93 W6        29.93R
$$

ILZ064>066-069>071-074>076-080>082-084>086-088>090-092>094-211100-
SOUTH-CENTRAL ILLINOIS

CITY           SKY/WX    TMP DP  RH WIND       PRES   REMARKS
CARBONDALE     MOCLDY    73  67  81 W9        29.91S
CAIRO*         CLEAR     72  66  82 SW5       29.93F
EFFINGHAM*     CLOUDY    69  66  89 W6        29.88S FOG
MARION         CLOUDY    73  68  83 SW6       29.90F
MT. VERNON     CLOUDY    72  66  83 W3        29.90S
CENTRALIA*     CLOUDY    71  67  87 W6        29.91R
SALEM*         PTCLDY    71  69  93 W6        29.90R
METROPOLIS*    PTCLDY    72  68  86 SW5       29.92S
$$

ILZ067-068-072-073-078-083-087-091-211100-
SOUTHEAST ILLINOIS

CITY           SKY/WX    TMP DP  RH WIND       PRES   REMARKS
LAWRENCEVILLE  MOCLDY    69  67  93 W6        29.87F
FLORA*         MOCLDY    71  68  92 W9        29.89R
FAIRFIELD*     CLOUDY   N/A N/A N/A SW3       29.88F
HARRISBURG*    PTCLDY    73  67  84 SW7       29.90F
ROBINSON*      PTCLDY    71  70  95 W9        29.86F
CARMI*         MOCLDY    72  70  93 NW7       29.88R
$$

ABBREVIATIONS USED IN REMARKS
   TC - TEMPERATURE IN CELSIUS
  WCI - WIND CHILL INDEX
   HX - HEAT INDEX
  VSB - VISIBILITY
$$



USA.gov is the U.S. government's official web portal to all federal, state and local government web resources and services.